Location: Bremen
(53.0793°N, 8.8017°E)
Time: 11:57:26
(UTC+02:00)

Tiros 1 - Pass Details

Date: 23 April 2024
Orbit: 619 x 652 km, 48.4° (Epoch: 28 April)

Event Time Altitude Azimuth Distance (km) Brightness Sun altitude
Rises 01:40:31 0° 234° (SW) 2,924 - -24.2°
Reaches altitude 10° 01:42:59 10° 226° (SW) 2,010 - -24.2°
Maximum altitude 01:47:11 35° 161° (SSE) 1,023 - -24.1°
Exits shadow 01:50:36 14° 101° (E) 1,741 9.3 -24.0°
Drops below altitude 10° 01:51:20 10° 96° (E) 1,996 9.7 -24.0°
Sets 01:53:47 0° 88° (E) 2,900 10.6 -24.0°
